Weather History for KPWK - October, 2012

Change the Weather History Date:

Tuesday, October 2, 2012

  Actual Average Record
Temperature  
Mean Temperature 59 °F 57 °F  
Max Temperature 68 °F 67 °F 84 °F (2005)
Min Temperature 50 °F 47 °F 30 °F (2003)
Degree Days  
Heating Degree Days 6 9  
Month to date heating degree days 15 17  
Since 1 July heating degree days 149 129  
Cooling Degree Days 0 1  
Month to date cooling degree days 0 2  
Year to date cooling degree days 1225 780  
Growing Degree Days 8 (Base 50)    
Moisture  
Dew Point 50 °F    
Average Humidity 71    
Maximum Humidity 93    
Minimum Humidity 45    
Precipitation  
Precipitation 0.00 in 0.13 in 3.06 in (2006)
Month to date precipitation 0.00 0.26  
Year to date precipitation 16.29 25.95  
Sea Level Pressure  
Sea Level Pressure 29.89 in    
Wind  
Wind Speed 7 mph (NNE)    
Max Wind Speed 15 mph    
Max Gust Speed 22 mph    
Visibility 10 miles    
Events      
T = Trace of Precipitation, MM = Missing Value Source: NWS Daily Summary

Daily Weather History Graph

Daily Weather History Graph

Search for Another Location

Airport or City:

Trip Planner

Search our weather history database for the weather conditions in past years. The results will help you decide how hot, cold, wet, or windy it might be!

Date:

Astronomy

Oct. 02, 2012 Rise Set
Actual Time 6:50 AM CDT 6:30 PM CDT
Civil Twilight 6:22 AM CDT 6:58 PM CDT
Nautical Twilight 5:49 AM CDT 7:30 PM CDT
Astronomical Twilight 5:17 AM CDT 8:03 PM CDT
Moon 7:39 PM CDT (10/2) 9:20 AM CDT (10/2)
Length of Visible Light 12h 36m
Length of Day
11h 40m
Waning Gibbous, 94% of the Moon is Illuminated
Oct 2
Waning Gibbous
Oct 8
Last Quarter
Oct 15
New
Oct 21
First Quarter
Oct 29
Full

Hourly Weather History & Observations

Time (CDT) Temp. Dew Point Humidity Pressure Visibility Wind Dir Wind Speed Gust Speed Precip Events Conditions
12:52 AM 54.0 °F 50.0 °F 86% 29.84 in 10.0 mi Calm Calm - N/A   Clear
1:52 AM 53.1 °F 48.9 °F 86% 29.84 in 10.0 mi NNW 3.5 mph - N/A   Clear
2:52 AM 52.0 °F 48.9 °F 89% 29.84 in 10.0 mi Calm Calm - N/A   Clear
3:52 AM 54.0 °F 48.9 °F 83% 29.85 in 10.0 mi Calm Calm - N/A   Clear
4:52 AM 50.0 °F 48.0 °F 93% 29.86 in 9.0 mi NNW 4.6 mph - N/A   Clear
5:52 AM 53.1 °F 50.0 °F 89% 29.87 in 10.0 mi North 5.8 mph - N/A   Clear
6:52 AM 52.0 °F 48.9 °F 89% 29.88 in 8.0 mi North 3.5 mph - N/A   Partly Cloudy
8:52 AM 59.0 °F 53.1 °F 81% 29.90 in 8.0 mi North 6.9 mph - N/A   Clear
9:52 AM 64.9 °F 51.1 °F 61% 29.90 in 10.0 mi NE 11.5 mph 18.4 mph N/A   Clear
10:52 AM 66.0 °F 48.0 °F 52% 29.90 in 10.0 mi NNE 12.7 mph 18.4 mph N/A   Clear
11:52 AM 66.9 °F 50.0 °F 54% 29.91 in 10.0 mi North 12.7 mph 19.6 mph N/A   Clear
12:52 PM 66.0 °F 50.0 °F 56% 29.91 in 10.0 mi NNE 12.7 mph - N/A   Partly Cloudy
1:52 PM 66.9 °F 46.9 °F 49% 29.89 in 10.0 mi NNE 12.7 mph 17.3 mph N/A   Clear
2:52 PM 66.9 °F 45.0 °F 45% 29.88 in 10.0 mi NE 12.7 mph 17.3 mph N/A   Clear
3:52 PM 66.9 °F 46.0 °F 47% 29.88 in 10.0 mi NE 10.4 mph 19.6 mph N/A   Clear
4:52 PM 64.9 °F 46.9 °F 52% 29.88 in 10.0 mi NNE 10.4 mph - N/A   Clear
5:52 PM 63.0 °F 48.9 °F 60% 29.88 in 10.0 mi NNE 8.1 mph - N/A   Clear
6:52 PM 60.1 °F 51.1 °F 72% 29.89 in 10.0 mi NNE 4.6 mph - N/A   Clear
7:52 PM 60.1 °F 52.0 °F 75% 29.91 in 10.0 mi NNE 6.9 mph - N/A   Overcast
9:52 PM 61.0 °F 55.0 °F 81% 29.93 in 10.0 mi NNE 6.9 mph - N/A   Overcast
10:52 PM 61.0 °F 55.9 °F 83% 29.93 in 10.0 mi NNE 8.1 mph - N/A   Overcast
11:52 PM 61.0 °F 55.9 °F 83% 29.92 in 10.0 mi NNE 8.1 mph - N/A   Overcast